Location: Blakkeveld
(51.1500°N, 3.4833°E)
Time: 01:01:29
(UTC+00:00)

Daily predictions for brighter satellites

Satellite Brightness Start Highest point End
(mag) Time Altitude Azimuth Time Altitude Azimuth Time Altitude Azimuth
USA 234 4.4 03:06:33 10° ENE 03:10:26 38° NE 03:10:26 38° NE
Cosmos 2322 Rocket 4.5 03:19:55 17° NNE 03:19:58 17° NNE 03:23:33 10° ENE
USA 59 Rocket 3.1 03:34:44 11° ESE 03:34:44 11° ESE 03:34:53 10° ESE
NOSS 3-1 (C) 4.3 03:34:05 54° NE 03:34:05 54° NE 03:42:05 10° ESE
Cosmos 1833 Rocket 4.4 03:46:20 25° NNE 03:46:20 25° NNE 03:48:35 10° NNE
ACS3 Solar Sail 4.0 03:39:52 10° N 03:40:27 13° N 03:40:27 13° N
SL-16 R/B 3.8 03:46:48 28° NNE 03:47:26 29° NE 03:52:19 10° ESE
Cosmos 2082 Rocket 3.7 03:49:31 24° SE 03:51:46 32° ESE 03:56:40 10° NE
COSMOS 2455 3.3 03:58:09 59° E 03:58:09 59° E 04:03:15 10° SE
ATLAS 3B R/B 4.0 03:59:03 32° N 03:59:49 32° N 04:06:45 10° ENE
NOSS 3-4 (A) 4.2 04:02:31 40° NNE 04:02:31 40° NNE 04:06:33 10° NE
NOSS 3-4 (C) 4.2 04:02:40 40° NNE 04:02:40 40° NNE 04:06:43 10° NE
Cosmos 1898 Rocket 4.4 04:02:27 46° E 04:02:27 46° E 04:06:43 10° SE
Cosmos 1980 Rocket 3.6 04:14:14 26° SSE 04:14:14 26° SSE 04:16:37 10° SSE
Cosmos 2369 3.9 04:16:15 68° SE 04:16:15 68° SE 04:21:15 10° SSE
Aureole 1 Rocket 4.2 04:20:44 61° NNW 04:22:10 88° WSW 04:29:40 10° SSE
COSMO-SKYMED 1 4.0 04:18:45 10° SE 04:22:26 33° ENE 04:22:50 32° NE
ADEOS Rocket 4.3 04:15:42 10° N 04:20:30 35° NNW 04:20:30 35° NNW
Cosmos 2180 Rocket 4.4 04:23:51 54° N 04:25:27 90° WSW 04:31:47 10° S
Cosmos 1937 Rocket 3.9 04:25:55 56° NE 04:26:22 59° ENE 04:31:26 10° SE
Cosmos 909 Rocket 4.4 04:28:18 57° NW 04:28:18 57° NW 04:34:46 10° NE
Cosmos 372 Rocket 4.4 04:33:38 52° SSE 04:33:38 52° SSE 04:37:27 10° SSE
Celestis-02/Orion 38 4.4 04:30:06 10° NNE 04:35:13 86° ESE 04:35:17 85° SSE
Cosmos 2333 Rocket 3.2 04:33:56 28° N 04:36:33 44° NE 04:42:01 10° ESE
NOSS 3-1 (A) 4.2 04:37:46 37° NNW 04:40:36 61° NE 04:48:57 10° ESE
Cosmos 1606 Rocket 3.8 04:43:12 64° SE 04:43:12 64° SE 04:47:02 10° SSE
Cosmos 2360 Rocket 3.5 04:40:11 21° N 04:43:14 35° NE 04:48:22 10° ESE
Cosmos 2142 Rocket 4.4 04:47:06 57° WNW 04:47:54 61° W 04:54:00 10° S
Cosmos 540 Rocket 4.2 04:56:48 38° NNW 04:56:48 38° NNW 05:00:23 10° NNE
USA 234 3.6 04:49:20 10° ENE 04:55:42 54° N 04:57:47 40° NW
Helios 1A Rocket 3.4 04:53:17 10° SSE 04:55:47 44° SE 04:55:47 44° SE
SeaSat 1 3.9 04:55:53 10° NNE 04:58:20 23° N 04:58:20 23° N
Cosmos 2219 Rocket 3.7 04:58:08 15° N 05:02:02 32° NE 05:07:03 10° ESE
SL-4 R/B 2.4 05:03:15 45° E 05:03:15 45° E 05:05:35 10° E
ATLAS 5 CENTAUR R/B 3.2 05:05:56 16° NNE 05:05:56 16° NNE 05:06:57 10° NNE
Cosmos 2322 Rocket 2.9 05:01:43 21° NNW 05:05:24 52° NE 05:10:56 10° SE
Cosmos 1726 Rocket 3.3 05:08:07 54° NNW 05:09:04 80° W 05:13:19 10° S
Meteor 2-3 Rocket 3.9 05:05:55 10° S 05:11:38 73° E 05:17:19 10° NNE
CZ-4 R/B 3.7 05:10:03 10° NNE 05:14:44 89° E 05:19:21 10° SSW
Cosmos 489 Rocket 4.5 05:09:21 10° SSW 05:15:41 86° ESE 05:21:59 10° NNE
Nadezhda 4 Rocket 3.9 05:10:24 10° SSW 05:16:41 71° WNW 05:22:59 10° N
NOSS 2-1 (D) 4.3 05:17:47 32° SSW 05:17:47 32° SSW 05:21:15 10° SSE
Cosmos 2237 4.3 05:15:45 40° WNW 05:17:23 54° WSW 05:22:54 10° S
Cosmos 1428 Rocket 4.4 05:11:33 10° SSW 05:17:47 81° WNW 05:24:07 10° N
CZ-2C R/B 4.0 05:14:11 10° N 05:16:11 20° NNW 05:16:11 20° NNW
USA 59 Rocket 1.0 05:20:26 29° SW 05:20:26 29° SW 05:23:52 10° S
Cosmos 841 Rocket 3.4 05:18:23 10° SSW 05:23:37 81° WNW 05:28:55 10° NNE
COSMOS 2406 3.3 05:18:29 10° SSW 05:24:09 81° ESE 05:29:52 10° NNE
NOSS 2-1 (E) 4.0 05:25:12 36° SW 05:25:12 36° SW 05:29:09 10° SSE
NOSS 3-1 (C) 4.1 05:21:26 31° WNW 05:25:05 58° SW 05:33:36 10° SSE
Cosmos 1833 Rocket 4.0 05:28:01 22° NNW 05:28:01 22° NNW 05:32:04 10° NNE
Cosmos 1892 Rocket 3.4 05:26:12 10° S 05:30:34 85° WNW 05:34:59 10° N
Cosmos 2195 Rocket 4.4 05:24:50 10° SSW 05:31:07 81° W 05:37:29 10° N
SL-16 R/B 2.1 05:28:40 25° NW 05:32:02 71° WSW 05:37:40 10° SSE
Cosmos 2082 Rocket 2.3 05:31:29 18° SW 05:35:36 53° NW 05:41:07 10° NNE
IRS-1D 3.6 05:37:01 10° N 05:41:50 51° WNW 05:46:42 10° SW
COSMOS 2455 3.7 05:41:19 26° W 05:42:45 29° WSW 05:47:48 10° SSW
Cosmos 1898 Rocket 4.3 05:42:42 28° W 05:43:21 28° W 05:47:47 10° SSW
Meteor 2-20 4.4 05:38:46 10° NNW 05:44:48 61° W 05:50:46 10° S
NOSS 8 (A) 4.3 05:45:59 37° NNW 05:46:53 62° NE 05:49:58 10° SE
Orbus 7S? 2.4 05:47:32 46° NW 05:48:11 79° NNE 05:50:54 10° ESE
Cosmos 405 Rocket 3.9 05:46:10 10° SSE 05:49:13 37° E 05:52:17 10° NNE
NOSS 3-4 (A) 4.4 05:49:58 22° NW 05:52:27 29° NNW 05:58:02 10° NE
ATLAS 3B R/B 3.7 05:46:18 16° NW 05:52:31 46° NNE 05:59:50 10° E
NOSS 3-4 (C) 4.4 05:50:06 22° NW 05:52:36 29° NNW 05:58:12 10° NE
Cosmos-2242 2.9 05:49:30 12° NNW 05:53:26 61° W 05:57:34 10° S
Cosmos 1980 Rocket 4.2 05:56:02 10° WSW 05:56:02 10° WSW 05:56:10 10° WSW
Cosmos 2278 3.8 05:51:02 18° NW 05:55:05 55° WSW 06:00:35 10° S
Cosmos 1707 4.5 05:54:39 10° NNE 05:57:18 24° ENE 05:59:55 10° SE
COSMO-SKYMED 1 3.3 05:54:09 10° SSW 05:57:46 29° W 05:59:09 24° WNW
Cosmos 1437 Rocket 4.3 05:54:52 10° N 05:57:58 30° ENE 06:01:04 10° SE
Cosmos 1484 Rocket 2.3 05:57:09 10° N 06:00:34 66° WNW 06:03:55 10° SSW
Cosmos 2058 Rocket 3.3 05:56:18 10° NNW 06:00:34 49° W 06:04:49 10° SSW
Cosmos 1627 Rocket 4.5 05:57:39 10° SSW 06:03:41 59° WNW 06:09:46 10° N
Meteor 2-2 Rocket 4.3 05:58:16 10° NNW 06:03:48 56° W 06:09:24 10° S
Okean 1 3.2 06:03:39 15° NNW 06:06:21 46° W 06:09:46 10° SSW
Cosmos 1346 Rocket 4.3 06:07:59 17° NW 06:07:59 17° NW 06:09:28 10° NNW
Meteor 2-20 Rocket 4.3 06:01:19 10° NNW 06:06:59 57° W 06:12:33 10° S
Cosmos 220 Rocket 4.5 06:05:30 10° WSW 06:09:13 34° WNW 06:13:01 10° N
SL-16 R/B 4.4 06:08:17 10° N 06:10:44 13° NNE 06:13:11 10° NE
ARIANE 5 R/B 3.5 06:07:31 10° NNE 06:12:37 51° E 06:17:41 10° S
Cosmos 2285 Rocket 4.0 06:06:43 10° NNW 06:13:05 76° WSW 06:19:28 10° SSE
ATLAS 2AS CENTAUR R/B 4.4 06:09:24 10° S 06:15:44 37° ESE 06:21:55 10° NE
SL-08 ROCKET BODY 4.4 06:11:13 10° S 06:17:04 87° E 06:22:58 10° N
SL-08 R/B 4.2 06:14:14 10° SE 06:18:38 47° ENE 06:23:09 10° N
IRIDIUM 104 4.3 06:13:42 10° S 06:18:55 75° W 06:24:10 10° N
Cosmos 2333 Rocket 2.7 06:15:59 13° NW 06:20:51 42° WSW 06:26:12 10° S
SAR-Lupe-4 4.1 06:19:24 10° NNE 06:22:57 61° ESE 06:26:28 10° S
SMAP 3.1 06:19:12 10° NNE 06:23:55 87° ESE 06:28:34 10° SSW
Cosmos 2360 Rocket 2.4 06:21:59 10° NW 06:27:27 52° WSW 06:32:52 10° S
IRIDIUM 114 4.3 06:22:54 10° SSW 06:28:04 63° W 06:33:17 10° N
Helios 1A Rocket 4.5 06:28:20 10° WSW 06:29:20 11° W 06:29:20 11° W
Meteor 1-19 Rocket 4.4 06:24:02 10° NNW 06:29:49 82° ENE 06:35:44 10° SSE
Landsat 7 3.9 06:25:10 10° NNE 06:29:52 82° ESE 06:34:31 10° SSW
NOSS 3-1 (A) 4.4 06:25:10 12° NW 06:31:37 49° WSW 06:39:59 10° SSE
CBERS-1 4.1 06:27:32 10° N 06:32:33 58° WNW 06:37:31 10° SW
Cosmos 2026 Rocket 4.4 06:27:50 10° SW 06:33:22 36° WNW 06:38:59 10° N
IGS 5A 3.8 06:29:39 10° N 06:33:25 39° WNW 06:37:08 10° SW
Cosmos 1814 Rocket 4.0 06:29:35 10° SSW 06:34:49 78° WNW 06:40:10 10° NNE
BREEZE-M DEB (TANK) 3.6 06:34:38 10° WSW 06:36:07 20° SSW 06:38:07 10° SE
SeaSat 1 4.4 06:35:12 10° N 06:36:12 11° NNW 06:37:11 10° NW
Cosmos 2237 Rocket 3.7 06:31:22 10° NNW 06:36:13 28° NE 06:41:03 10° ESE
IRIDIUM 103 4.5 06:32:11 10° SSW 06:37:17 53° W 06:42:25 10° N
USA 234 3.4 06:31:49 10° ESE 06:38:21 72° NNE 06:44:54 10° WNW
SL-4 R/B 1.9 06:36:58 12° W 06:39:53 50° SSW 06:42:57 10° SE
Cosmos 1758 Rocket 3.6 06:36:47 10° SSW 06:41:09 58° WNW 06:45:30 10° N
IRS-1C 4.3 06:36:28 10° NNE 06:41:50 82° ESE 06:47:09 10° SSW
Cosmos 1733 2.5 06:40:21 10° SW 06:41:55 23° WNW 06:43:32 10° NNW
Cosmos 1743 2.2 06:38:58 10° SSW 06:42:11 64° WNW 06:45:26 10° N
Thor Agena Rocket 3.5 06:40:01 10° N 06:45:03 64° WNW 06:50:01 10° SSW
BREEZE-M DEB (TANK) 3.5 06:43:11 10° WSW 06:46:04 73° S 06:54:21 10° E
Cosmos 2219 Rocket 2.3 06:40:46 10° NW 06:46:21 61° WSW 06:51:53 10° SSE
Cosmos 192 4.4 06:41:46 10° NNW 06:46:41 67° WSW 06:51:31 10° SSE
ATLAS 5 CENTAUR R/B 3.1 06:45:55 10° NNW 06:47:37 13° N 06:49:27 10° NNE
Cosmos 2322 Rocket 3.0 06:44:10 10° NW 06:49:15 34° WSW 06:54:16 10° S
S3M 4.0 06:43:42 10° NNW 06:49:56 77° W 06:56:03 10° S
USA 229 4.2 06:47:53 10° NW 06:55:09 74° NE 07:03:12 10° SE
USA 229 DEB 4.2 06:47:58 10° NW 06:55:14 74° NE 07:03:17 10° SE
Cosmos 2322 3.9 06:49:32 10° NNW 06:55:14 75° ENE 07:00:53 10° SE
SJ-12 3.8 06:53:30 10° N 06:57:15 56° WNW 07:00:59 10° SSW
Resurs 01 Rocket 4.2 06:55:33 10° NE 06:59:07 24° E 07:02:39 10° SSE
SKYMED 3 4.4 06:55:09 10° S 06:59:08 70° WSW 07:03:09 10° NNW
YAOGAN 1 3.6 06:56:02 10° NNE 07:00:13 51° E 07:04:21 10° S
